OKBID LKSZ-LKSZ

Flight info

Callsign OKBID
Flight time 0h 1m
Altitude 6500
Route OMELO EDDCT EDDC EDDCM EDDCC EDDCT LALUK
Aircraft BR23/L-SDY/S

Departure

Time 2026-04-21 18:26
Airport Sazená Airfield (LKSZ)

Arrival

Time 2026-04-21 18:28
Airport Sazená Airfield (LKSZ)
Time Latitude Longitude Altitude Speed Heading
2026-04-21 18:12 50.31911 14.26204 764 ft 0 kts 105°
2026-04-21 18:22 50.31914 14.26229 763 ft 4 kts 71°
2026-04-21 18:22 50.31920 14.26258 763 ft 2 kts 70°
2026-04-21 18:22 50.31929 14.26293 763 ft 3 kts 64°
2026-04-21 18:23 50.31934 14.26314 763 ft 0 kts 89°
2026-04-21 18:24 50.31939 14.26348 763 ft 6 kts 60°
2026-04-21 18:25 50.31959 14.26356 763 ft 7 kts 329°
2026-04-21 18:25 50.32134 14.26184 766 ft 51 kts 329°
2026-04-21 18:25 50.32448 14.25844 908 ft 53 kts 338°
2026-04-21 18:25 50.32760 14.25710 1036 ft 54 kts 39°
2026-04-21 18:26 50.32972 14.26291 1115 ft 69 kts 51°
2026-04-21 18:26 50.33239 14.26926 1245 ft 72 kts 53°
2026-04-21 18:26 50.33285 14.27698 1379 ft 93 kts 119°
2026-04-21 18:26 50.32714 14.28357 1369 ft 108 kts 141°
2026-04-21 18:27 50.32057 14.28893 1439 ft 107 kts 181°
2026-04-21 18:27 50.31534 14.28225 1407 ft 91 kts 239°
2026-04-21 18:27 50.31198 14.27476 1222 ft 75 kts 273°
2026-04-21 18:27 50.31401 14.27053 1021 ft 51 kts 342°
2026-04-21 18:28 50.31705 14.26772 875 ft 53 kts 339°
2026-04-21 18:28 50.32008 14.26467 775 ft 48 kts 337°
2026-04-21 18:28 50.32196 14.26285 766 ft 14 kts 326°
2026-04-21 18:28 50.32376 14.26086 775 ft 49 kts 328°
2026-04-21 18:29 50.32666 14.25747 962 ft 47 kts 329°
2026-04-21 18:29 50.32934 14.25364 1120 ft 54 kts 327°
2026-04-21 18:29 50.33221 14.24989 1261 ft 57 kts 339°
2026-04-21 18:29 50.33665 14.24738 1253 ft 75 kts 352°
2026-04-21 18:30 50.34180 14.24551 1406 ft 77 kts 350°
2026-04-21 18:30 50.34697 14.24335 1557 ft 76 kts 352°
2026-04-21 18:30 50.35215 14.24101 1724 ft 81 kts 349°
2026-04-21 18:30 50.35763 14.23843 1906 ft 82 kts 353°
2026-04-21 18:31 50.36322 14.23572 2093 ft 86 kts 353°
2026-04-21 18:31 50.36895 14.23293 2280 ft 86 kts 353°
2026-04-21 18:31 50.37454 14.23019 2519 ft 83 kts 352°
2026-04-21 18:31 50.37986 14.22755 2768 ft 79 kts 352°
2026-04-21 18:32 50.38516 14.22495 2986 ft 82 kts 352°
2026-04-21 18:32 50.39117 14.22207 3002 ft 95 kts 351°
2026-04-21 18:32 50.39751 14.21895 3008 ft 95 kts 352°
2026-04-21 18:32 50.40369 14.21591 3007 ft 94 kts 351°
2026-04-21 18:33 50.40991 14.21285 3010 ft 93 kts 353°
2026-04-21 18:33 50.41611 14.20981 3008 ft 94 kts 353°
2026-04-21 18:33 50.42239 14.20673 3009 ft 95 kts 352°
2026-04-21 18:33 50.42878 14.20361 2993 ft 99 kts 347°
2026-04-21 18:34 50.43511 14.20045 3025 ft 94 kts 349°
2026-04-21 18:34 50.44065 14.19772 3281 ft 69 kts 350°
2026-04-21 18:34 50.44531 14.19541 3482 ft 71 kts 350°
2026-04-21 18:34 50.44980 14.19316 3684 ft 67 kts 352°
2026-04-21 18:35 50.45286 14.19166 3826 ft 68 kts 351°
2026-04-21 18:35 50.45874 14.18880 4030 ft 67 kts 352°
2026-04-21 18:35 50.46315 14.18658 4164 ft 66 kts 351°
2026-04-21 18:35 50.46754 14.18440 4359 ft 66 kts 351°
2026-04-21 18:36 50.47190 14.18225 4566 ft 66 kts 351°
2026-04-21 18:36 50.47624 14.18012 4776 ft 65 kts 352°
2026-04-21 18:36 50.48057 14.17799 4977 ft 65 kts 352°
2026-04-21 18:36 50.48494 14.17583 5164 ft 66 kts 352°
2026-04-21 18:37 50.48927 14.17368 5317 ft 66 kts 351°
2026-04-21 18:37 50.49367 14.17160 5496 ft 66 kts 353°
2026-04-21 18:37 50.49807 14.16938 5696 ft 66 kts 352°
2026-04-21 18:37 50.50250 14.16720 5862 ft 67 kts 351°
2026-04-21 18:38 50.50693 14.16500 6004 ft 67 kts 351°
2026-04-21 18:38 50.51135 14.16282 6134 ft 66 kts 351°
2026-04-21 18:38 50.51577 14.16062 6303 ft 67 kts 351°
2026-04-21 18:38 50.52021 14.15844 6436 ft 67 kts 350°
2026-04-21 18:39 50.52466 14.15623 6605 ft 67 kts 351°
2026-04-21 18:39 50.52930 14.15399 6719 ft 76 kts 351°
2026-04-21 18:39 50.53477 14.15136 6760 ft 88 kts 349°
2026-04-21 18:39 50.54070 14.14845 6829 ft 90 kts 348°
2026-04-21 18:40 50.54666 14.14550 6922 ft 91 kts 349°
2026-04-21 18:40 50.55288 14.14244 6947 ft 96 kts 349°
2026-04-21 18:40 50.55718 14.14032 6953 ft 99 kts 349°
2026-04-21 18:40 50.56620 14.13582 6907 ft 104 kts 348°
2026-04-21 18:41 50.57322 14.13238 6781 ft 106 kts 348°
2026-04-21 18:41 50.58010 14.12899 6737 ft 103 kts 348°
2026-04-21 18:41 50.58682 14.12565 6735 ft 100 kts 348°
2026-04-21 18:41 50.59342 14.12238 6735 ft 99 kts 348°
2026-04-21 18:42 50.60005 14.11911 6734 ft 100 kts 348°
2026-04-21 18:42 50.60664 14.11584 6733 ft 98 kts 348°
2026-04-21 18:42 50.61310 14.11264 6733 ft 97 kts 348°
2026-04-21 18:42 50.61952 14.10946 6733 ft 97 kts 348°
2026-04-21 18:43 50.62591 14.10626 6731 ft 96 kts 348°
2026-04-21 18:43 50.63235 14.10309 6739 ft 98 kts 349°
2026-04-21 18:43 50.63886 14.09987 6745 ft 98 kts 349°
2026-04-21 18:43 50.64543 14.09663 6742 ft 99 kts 349°
2026-04-21 18:44 50.65198 14.09336 6742 ft 98 kts 349°
2026-04-21 18:44 50.65853 14.09012 6744 ft 100 kts 349°
2026-04-21 18:44 50.66519 14.08681 6746 ft 100 kts 349°
2026-04-21 18:44 50.67188 14.08349 6744 ft 100 kts 349°
2026-04-21 18:45 50.67846 14.08022 6747 ft 98 kts 348°
2026-04-21 18:45 50.68490 14.07700 6745 ft 99 kts 348°
2026-04-21 18:45 50.69149 14.07371 6746 ft 99 kts 348°
2026-04-21 18:45 50.69811 14.07041 6743 ft 100 kts 348°
2026-04-21 18:46 50.70474 14.06715 6744 ft 100 kts 348°
2026-04-21 18:46 50.71132 14.06387 6744 ft 98 kts 348°
2026-04-21 18:46 50.71784 14.06058 6747 ft 99 kts 348°
2026-04-21 18:46 50.72444 14.05735 6744 ft 99 kts 350°
2026-04-21 18:47 50.73099 14.05409 6745 ft 98 kts 350°
2026-04-21 18:47 50.73748 14.05087 6746 ft 98 kts 349°
2026-04-21 18:47 50.74395 14.04764 6742 ft 98 kts 349°
2026-04-21 18:47 50.75037 14.04443 6742 ft 96 kts 349°
2026-04-21 18:48 50.75678 14.04123 6744 ft 97 kts 349°
2026-04-21 18:48 50.76333 14.03798 6746 ft 99 kts 349°
2026-04-21 18:48 50.76974 14.03476 6739 ft 94 kts 349°
2026-04-21 18:48 50.77608 14.03161 6739 ft 97 kts 349°
2026-04-21 18:49 50.78255 14.02839 6739 ft 98 kts 349°
2026-04-21 18:49 50.78897 14.02515 6740 ft 98 kts 349°
2026-04-21 18:49 50.79338 14.02297 6742 ft 98 kts 349°
2026-04-21 18:49 50.80201 14.01865 6743 ft 98 kts 349°
2026-04-21 18:50 50.80855 14.01539 6746 ft 98 kts 349°
2026-04-21 18:50 50.81507 14.01212 6746 ft 98 kts 349°
2026-04-21 18:50 50.82159 14.00886 6749 ft 98 kts 349°
2026-04-21 18:50 50.82811 14.00561 6750 ft 98 kts 349°
2026-04-21 18:51 50.83461 14.00235 6751 ft 98 kts 349°
2026-04-21 18:51 50.84100 13.99809 6750 ft 102 kts 336°
2026-04-21 18:51 50.84708 13.99251 6751 ft 100 kts 338°
2026-04-21 18:51 50.85317 13.98708 6752 ft 100 kts 338°
2026-04-21 18:52 50.85924 13.98166 6749 ft 100 kts 338°
2026-04-21 18:52 50.86525 13.97630 6729 ft 102 kts 338°
2026-04-21 18:52 50.87169 13.97058 6609 ft 108 kts 337°
2026-04-21 18:52 50.87829 13.96466 6494 ft 110 kts 337°
2026-04-21 18:53 50.88494 13.95871 6382 ft 110 kts 337°
2026-04-21 18:53 50.89159 13.95275 6266 ft 110 kts 337°
2026-04-21 18:53 50.89829 13.94676 6149 ft 111 kts 337°
2026-04-21 18:53 50.90503 13.94073 6034 ft 111 kts 337°
2026-04-21 18:54 50.91177 13.93470 5917 ft 111 kts 337°
2026-04-21 18:54 50.91860 13.92860 5729 ft 115 kts 337°
2026-04-21 18:54 50.92566 13.92228 5492 ft 117 kts 336°
2026-04-21 18:54 50.93277 13.91588 5256 ft 118 kts 337°
2026-04-21 18:55 50.93748 13.91166 5098 ft 117 kts 336°
2026-04-21 18:55 50.94697 13.90316 4724 ft 118 kts 336°
2026-04-21 18:55 50.95422 13.89667 4353 ft 120 kts 336°
2026-04-21 18:55 50.96152 13.89011 3988 ft 121 kts 336°
2026-04-21 18:56 50.96887 13.88351 3625 ft 121 kts 336°
2026-04-21 18:56 50.97621 13.87697 3258 ft 121 kts 335°
2026-04-21 18:56 50.98355 13.87033 2884 ft 122 kts 335°
2026-04-21 18:56 50.99082 13.86378 2537 ft 120 kts 335°
2026-04-21 18:57 50.99754 13.85764 2520 ft 105 kts 335°
2026-04-21 18:57 51.00375 13.85208 2515 ft 100 kts 336°
2026-04-21 18:57 51.00974 13.84670 2509 ft 98 kts 336°
2026-04-21 18:57 51.01558 13.84145 2512 ft 96 kts 336°
2026-04-21 18:58 51.02148 13.83616 2515 ft 98 kts 335°
2026-04-21 18:58 51.02746 13.83078 2515 ft 99 kts 335°
2026-04-21 18:58 51.03342 13.82540 2516 ft 97 kts 336°
2026-04-21 18:58 51.03933 13.82010 2517 ft 97 kts 335°
2026-04-21 18:59 51.04525 13.81511 2515 ft 95 kts 345°
2026-04-21 18:59 51.05156 13.81212 2517 ft 94 kts 347°
2026-04-21 18:59 51.05783 13.80933 2516 ft 93 kts 349°
2026-04-21 18:59 51.06390 13.80671 2519 ft 91 kts 349°
2026-04-21 19:00 51.07003 13.80389 2470 ft 95 kts 343°
2026-04-21 19:00 51.07604 13.79854 2361 ft 101 kts 336°
2026-04-21 19:00 51.08230 13.79300 2241 ft 104 kts 336°
2026-04-21 19:00 51.08865 13.78735 2125 ft 105 kts 336°
2026-04-21 19:01 51.09506 13.78171 2009 ft 105 kts 335°
2026-04-21 19:01 51.10108 13.77589 1853 ft 96 kts 323°
2026-04-21 19:01 51.10526 13.76783 1729 ft 94 kts 313°
2026-04-21 19:01 51.10920 13.76016 1546 ft 79 kts 313°
2026-04-21 19:02 51.11287 13.75349 1250 ft 77 kts 315°
2026-04-21 19:02 51.11656 13.74784 1097 ft 74 kts 332°
2026-04-21 19:02 51.11974 13.74804 971 ft 73 kts 30°
2026-04-21 19:02 51.12326 13.75279 800 ft 62 kts 37°
2026-04-21 19:03 51.12652 13.75725 711 ft 52 kts 38°
2026-04-21 19:03 51.12890 13.76050 718 ft 54 kts 40°
2026-04-21 19:03 51.13232 13.76521 791 ft 73 kts 39°
2026-04-21 19:03 51.13616 13.77061 1006 ft 72 kts 38°
2026-04-21 19:04 51.14043 13.77502 1126 ft 84 kts
2026-04-21 19:04 51.14552 13.77051 1272 ft 84 kts 310°
2026-04-21 19:04 51.14798 13.76241 1498 ft 78 kts 300°
2026-04-21 19:04 51.15134 13.75586 1717 ft 77 kts 318°
2026-04-21 19:05 51.15504 13.74931 1891 ft 84 kts 313°
2026-04-21 19:05 51.15758 13.74098 2008 ft 90 kts 304°
2026-04-21 19:05 51.16051 13.73135 2007 ft 98 kts 301°
2026-04-21 19:05 51.16349 13.72124 2011 ft 104 kts 301°
2026-04-21 19:06 51.16650 13.71081 2019 ft 103 kts 301°
2026-04-21 19:06 51.16948 13.70041 2015 ft 103 kts 301°
2026-04-21 19:06 51.17246 13.69015 2019 ft 102 kts 301°
2026-04-21 19:06 51.17541 13.67989 2020 ft 102 kts 298°
2026-04-21 19:07 51.17581 13.66855 2020 ft 108 kts 259°
2026-04-21 19:07 51.17165 13.65837 2019 ft 112 kts 227°
2026-04-21 19:07 51.16632 13.64931 2018 ft 112 kts 231°
2026-04-21 19:07 51.16109 13.64016 2017 ft 111 kts 230°
2026-04-21 19:08 51.15599 13.63100 2016 ft 109 kts 240°
2026-04-21 19:08 51.15595 13.62032 1997 ft 97 kts 314°
2026-04-21 19:08 51.16162 13.61861 2000 ft 89 kts 32°
2026-04-21 19:08 51.16578 13.62578 2004 ft 88 kts 41°
2026-04-21 19:09 51.17017 13.63263 2008 ft 88 kts 44°
2026-04-21 19:09 51.17106 13.64212 1998 ft 101 kts 113°
2026-04-21 19:09 51.16466 13.64645 2000 ft 111 kts 191°
2026-04-21 19:09 51.15903 13.63873 2007 ft 108 kts 238°
2026-04-21 19:10 51.15428 13.62932 2013 ft 109 kts 232°
2026-04-21 19:10 51.14934 13.62033 2020 ft 109 kts 231°
2026-04-21 19:10 51.14424 13.61124 2021 ft 110 kts 231°
2026-04-21 19:10 51.13906 13.60215 2019 ft 110 kts 230°
2026-04-21 19:11 51.13397 13.59328 2022 ft 108 kts 230°
2026-04-21 19:11 51.12881 13.58440 2016 ft 113 kts 227°
2026-04-21 19:11 51.12180 13.57953 2020 ft 112 kts 180°
2026-04-21 19:11 51.11461 13.58291 2012 ft 106 kts 137°
2026-04-21 19:12 51.11032 13.59206 2017 ft 102 kts 108°
2026-04-21 19:12 51.10733 13.60261 2021 ft 105 kts 108°
2026-04-21 19:12 51.10688 13.61286 2009 ft 92 kts 53°
2026-04-21 19:12 51.11244 13.61515 2001 ft 93 kts 337°
2026-04-21 19:13 51.11518 13.60556 1985 ft 110 kts 264°
2026-04-21 19:13 51.10974 13.59773 2003 ft 114 kts 186°
2026-04-21 19:13 51.10318 13.60263 2002 ft 101 kts 111°
2026-04-21 19:13 51.10168 13.61300 2002 ft 96 kts 101°
2026-04-21 19:14 51.09964 13.62318 2007 ft 96 kts 100°
2026-04-21 19:14 51.09766 13.63365 2020 ft 102 kts 100°
2026-04-21 19:14 51.09511 13.64402 2014 ft 100 kts 109°
2026-04-21 19:14 51.09222 13.65402 2015 ft 99 kts 108°
2026-04-21 19:15 51.08930 13.66395 2018 ft 99 kts 108°
2026-04-21 19:15 51.08635 13.67394 2011 ft 103 kts 109°
2026-04-21 19:15 51.08339 13.68413 2018 ft 102 kts 108°
2026-04-21 19:15 51.08043 13.69443 2013 ft 102 kts 109°
2026-04-21 19:16 51.07742 13.70467 2014 ft 102 kts 109°
2026-04-21 19:16 51.07441 13.71484 2016 ft 100 kts 108°
2026-04-21 19:16 51.07153 13.72478 2020 ft 99 kts 108°
2026-04-21 19:16 51.06857 13.73477 2015 ft 100 kts 108°
2026-04-21 19:17 51.06276 13.75472 2019 ft 101 kts 108°
2026-04-21 19:17 51.05978 13.76486 2018 ft 100 kts 108°
2026-04-21 19:17 51.05683 13.77491 2018 ft 101 kts 108°
2026-04-21 19:18 51.05382 13.78513 2017 ft 102 kts 108°
2026-04-21 19:18 51.05081 13.79535 2019 ft 101 kts 108°
2026-04-21 19:18 51.04786 13.80542 2015 ft 100 kts 108°
2026-04-21 19:18 51.04346 13.81422 2008 ft 108 kts 142°
2026-04-21 19:19 51.03624 13.81747 2005 ft 109 kts 169°
2026-04-21 19:19 51.02872 13.81947 2009 ft 111 kts 166°
2026-04-21 19:19 51.02140 13.82146 2121 ft 104 kts 166°
2026-04-21 19:19 51.01446 13.82338 2231 ft 99 kts 166°
2026-04-21 19:20 51.00769 13.82523 2342 ft 98 kts 165°
2026-04-21 19:20 51.00094 13.82709 2458 ft 98 kts 165°
2026-04-21 19:20 50.99450 13.82885 2688 ft 92 kts 164°
2026-04-21 19:20 50.98841 13.83053 2907 ft 85 kts 163°
2026-04-21 19:21 50.98256 13.83215 3129 ft 85 kts 163°
2026-04-21 19:21 50.97670 13.83374 3332 ft 86 kts 163°
2026-04-21 19:21 50.97047 13.83552 3403 ft 100 kts 164°
2026-04-21 19:21 50.96324 13.83736 3440 ft 106 kts 166°
2026-04-21 19:22 50.95659 13.83913 3694 ft 91 kts 163°
2026-04-21 19:22 50.95048 13.84082 3936 ft 88 kts 163°
2026-04-21 19:22 50.94431 13.84252 4107 ft 91 kts 163°
2026-04-21 19:22 50.93809 13.84420 4297 ft 90 kts 162°
2026-04-21 19:23 50.93196 13.84586 4464 ft 91 kts 162°
2026-04-21 19:23 50.92567 13.84758 4630 ft 90 kts 163°
2026-04-21 19:23 50.91959 13.84925 4827 ft 90 kts 162°
2026-04-21 19:23 50.91343 13.85092 5008 ft 90 kts 162°
2026-04-21 19:24 50.90728 13.85258 5173 ft 90 kts 162°
2026-04-21 19:24 50.90112 13.85424 5323 ft 90 kts 163°
2026-04-21 19:24 50.89493 13.85591 5466 ft 90 kts 162°
2026-04-21 19:24 50.88872 13.85759 5602 ft 91 kts 162°
2026-04-21 19:25 50.88246 13.85928 5742 ft 92 kts 162°
2026-04-21 19:25 50.87586 13.86109 5769 ft 101 kts 163°
2026-04-21 19:25 50.86866 13.86304 5772 ft 109 kts 164°
2026-04-21 19:25 50.86102 13.86506 5776 ft 113 kts 164°
2026-04-21 19:26 50.85324 13.86713 5779 ft 114 kts 165°
2026-04-21 19:26 50.84535 13.86925 5774 ft 115 kts 164°
2026-04-21 19:26 50.83749 13.87138 5774 ft 115 kts 164°
2026-04-21 19:26 50.82962 13.87350 5769 ft 116 kts 165°
2026-04-21 19:27 50.82163 13.87566 5767 ft 116 kts 164°
2026-04-21 19:27 50.81363 13.87782 5768 ft 116 kts 164°
2026-04-21 19:27 50.80568 13.87999 5767 ft 114 kts 162°
2026-04-21 19:27 50.79860 13.88490 5765 ft 109 kts 144°
2026-04-21 19:28 50.79182 13.89037 5765 ft 110 kts 146°
2026-04-21 19:28 50.78500 13.89584 5762 ft 111 kts 146°
2026-04-21 19:28 50.77813 13.90132 5762 ft 111 kts 146°
2026-04-21 19:28 50.77122 13.90681 5761 ft 111 kts 146°
2026-04-21 19:29 50.76445 13.91221 5761 ft 110 kts 146°
2026-04-21 19:29 50.75764 13.91763 5760 ft 111 kts 145°
2026-04-21 19:29 50.75074 13.92316 5763 ft 112 kts 146°
2026-04-21 19:29 50.74379 13.92865 5763 ft 111 kts 146°
2026-04-21 19:30 50.73700 13.93403 5761 ft 106 kts 144°
2026-04-21 19:30 50.73029 13.93940 5759 ft 110 kts 145°
2026-04-21 19:30 50.72354 13.94477 5759 ft 108 kts 145°
2026-04-21 19:30 50.71681 13.95013 5762 ft 108 kts 146°
2026-04-21 19:31 50.71009 13.95547 5758 ft 108 kts 145°
2026-04-21 19:31 50.70325 13.96086 5754 ft 111 kts 146°
2026-04-21 19:31 50.69641 13.96631 5763 ft 111 kts 146°
2026-04-21 19:31 50.68951 13.97181 5763 ft 110 kts 145°
2026-04-21 19:32 50.68274 13.97722 5755 ft 109 kts 145°
2026-04-21 19:32 50.67598 13.98253 5760 ft 109 kts 146°
2026-04-21 19:32 50.66916 13.98788 5752 ft 108 kts 145°
2026-04-21 19:32 50.66254 13.99321 5752 ft 107 kts 145°
2026-04-21 19:33 50.65801 13.99684 5753 ft 110 kts 146°
2026-04-21 19:33 50.64884 14.00405 5761 ft 112 kts 146°
2026-04-21 19:33 50.64185 14.00960 5749 ft 111 kts 145°
2026-04-21 19:33 50.63500 14.01505 5750 ft 110 kts 145°
2026-04-21 19:34 50.62821 14.02042 5754 ft 109 kts 145°
2026-04-21 19:34 50.62148 14.02573 5750 ft 108 kts 145°
2026-04-21 19:34 50.61478 14.03103 5752 ft 108 kts 145°
2026-04-21 19:34 50.60805 14.03636 5749 ft 108 kts 145°
2026-04-21 19:35 50.60134 14.04168 5740 ft 107 kts 146°
2026-04-21 19:35 50.58761 14.05251 5753 ft 112 kts 146°
2026-04-21 19:35 50.58070 14.05797 5752 ft 110 kts 146°
2026-04-21 19:36 50.57389 14.06335 5754 ft 108 kts 146°
2026-04-21 19:36 50.56721 14.06861 5765 ft 110 kts 145°
2026-04-21 19:36 50.56020 14.07416 5753 ft 112 kts 145°
2026-04-21 19:36 50.55317 14.07975 5754 ft 113 kts 146°
2026-04-21 19:37 50.54593 14.08543 5601 ft 118 kts 146°
2026-04-21 19:37 50.53848 14.09127 5453 ft 122 kts 146°
2026-04-21 19:37 50.53082 14.09731 5285 ft 123 kts 146°
2026-04-21 19:37 50.52319 14.10331 5125 ft 123 kts 146°
2026-04-21 19:38 50.51554 14.10942 4978 ft 124 kts 145°
2026-04-21 19:38 50.50770 14.11556 4801 ft 125 kts 146°
2026-04-21 19:38 50.50252 14.11958 4695 ft 126 kts 146°
2026-04-21 19:38 50.49196 14.12787 4474 ft 127 kts 146°
2026-04-21 19:39 50.48407 14.13409 4306 ft 127 kts 147°
2026-04-21 19:39 50.47612 14.14031 4142 ft 128 kts 147°
2026-04-21 19:39 50.46819 14.14656 3976 ft 128 kts 147°
2026-04-21 19:39 50.46031 14.15277 3801 ft 127 kts 147°
2026-04-21 19:40 50.45247 14.15889 3630 ft 124 kts 147°
2026-04-21 19:40 50.44480 14.16488 3453 ft 123 kts 146°
2026-04-21 19:40 50.43701 14.17109 3280 ft 128 kts 147°
2026-04-21 19:40 50.42917 14.17717 3110 ft 125 kts 147°
2026-04-21 19:41 50.42142 14.18324 2919 ft 124 kts 147°
2026-04-21 19:41 50.41370 14.18931 2741 ft 124 kts 147°
2026-04-21 19:41 50.40600 14.19535 2571 ft 126 kts 147°
2026-04-21 19:41 50.39802 14.20161 2397 ft 129 kts 148°
2026-04-21 19:42 50.38995 14.20794 2229 ft 130 kts 148°
2026-04-21 19:42 50.38190 14.21428 2044 ft 128 kts 148°
2026-04-21 19:42 50.37402 14.22041 1861 ft 126 kts 150°
2026-04-21 19:42 50.36635 14.22678 1682 ft 125 kts 143°
2026-04-21 19:43 50.35951 14.23469 1600 ft 117 kts 140°
2026-04-21 19:43 50.35316 14.24219 1590 ft 112 kts 139°
2026-04-21 19:43 50.34714 14.24939 1592 ft 109 kts 140°
2026-04-21 19:43 50.34115 14.25670 1591 ft 109 kts 139°
2026-04-21 19:44 50.33514 14.26394 1587 ft 109 kts 141°
2026-04-21 19:44 50.32905 14.27028 1478 ft 95 kts 144°
2026-04-21 19:44 50.32442 14.27539 1406 ft 76 kts 141°
2026-04-21 19:44 50.31974 14.27939 1307 ft 75 kts 183°
2026-04-21 19:45 50.31624 14.27535 1149 ft 60 kts 231°
2026-04-21 19:45 50.31467 14.26970 934 ft 55 kts 295°
2026-04-21 19:45 50.31748 14.26584 804 ft 54 kts 328°
2026-04-21 19:45 50.32022 14.26293 764 ft 36 kts 323°
2026-04-21 19:46 50.32153 14.26156 766 ft 11 kts 315°
2026-04-21 19:46 50.32149 14.26104 766 ft 7 kts 215°
2026-04-21 19:46 50.32113 14.26124 766 ft 5 kts 147°
2026-04-21 19:46 50.32079 14.26162 765 ft 7 kts 144°
2026-04-21 19:47 50.32038 14.26205 764 ft 7 kts 148°
2026-04-21 19:47 50.31997 14.26222 764 ft 6 kts 181°
2026-04-21 19:47 50.31960 14.26209 765 ft 6 kts 203°
2026-04-21 19:47 50.31925 14.26180 766 ft 4 kts 177°
2026-04-21 19:48 50.31913 14.26201 766 ft 0 kts 115°
2026-04-21 19:48 50.31913 14.26202 766 ft 0 kts 113°